Skip Page Navigation
NASA JPL Caltech
NASA Logo - Jet Propulsion Laboratory + View the NASA Portal
+ Near-Earth Object (NEO) Program
Search JPL
JPL Home Earth Solar System Stars & Galaxies Technology
JPL Solar System Dynamics
BODIES ORBITS EPHEMERIDES TOOLS PHYSICAL DATA DISCOVERY FAQ SITE MAP
JPL Small-Body Database Browser
Search: [ help ]  
(2006 WX1)
Classification: Aten [NEO, PHA]          SPK-ID: 3359274
Ephemeris | Orbit Diagram | Orbital Elements | Physical Parameters | Close-Approach Data ]

[ hide orbit diagram ]
Orbit Diagram
Note: Make sure you have Java enabled on your browser to see the applet. This applet is provided as a 3D orbit visualization tool. The applet was implemented using 2-body methods, and hence should not be used for determining accurate long-term trajectories (over several years or decades) or planetary encounter circumstances. For accurate long-term ephemerides, please instead use our Horizons system.
Orbit Viewer

Additional Notes: the orbits shown in the applet are color coded. The planets are white lines, and the asteroid/comet is a blue line. The bright white line indicates the portion of the orbit that is above the ecliptic plane, and the darker portion is below the ecliptic plane. Likewise for the asteroid/comet orbit, the light blue indicates the portion above the ecliptic plane, and the dark blue the portion below the ecliptic plane.

Orbit Viewer applet originally written and kindly provided by Osamu Ajiki (AstroArts), and further modified by Ron Baalke (JPL).


Orbital Elements at Epoch 2456400.5 (2013-Apr-18.0) TDB
Reference: JPL 32 (heliocentric ecliptic J2000)
 Element Value Uncertainty (1-sigma)   Units 
e .3002933926543868 9.8947e-07  
a .9166303520840527 6.7857e-08 AU
q .6413723138467475 8.6305e-07 AU
i 11.64306618430307 4.4699e-05 deg
node 328.048725956759 6.8587e-05 deg
peri 290.9456253217798 5.5551e-05 deg
M 277.2105514022111 0.00017217 deg
tp 2456474.216085803546
(2013-Jun-30.71608580)
0.00016105 JED
period 320.5455687741497
0.88
3.5594e-05
9.745e-08
d
yr
n 1.12308524924158 1.2471e-07 deg/d
Q 1.191888390321358 8.8234e-08 AU
  Orbit Determination Parameters
   # obs. used (total)      130  
   data-arc span      2178 days (5.96 yr)  
   first obs. used      2006-11-19  
   last obs. used      2012-11-05  
   planetary ephem.      DE405  
   SB-pert. ephem.      SB405-CPV-2  
   condition code      1  
   fit RMS      .64575  
   data source      ORB  
   producer      Otto Matic  
   solution date      2012-Nov-16 00:56:17  

Additional Information
 Earth MOID = .0292619 AU 
 T_jup = 6.461 
[ show covariance matrix ]

Ephemeris | Orbit Diagram | Orbital Elements | Physical Parameters | Close-Approach Data ]

Physical Parameter Table
Parameter Symbol Value Units Sigma Reference Notes
absolute magnitude H 19.572 mag .51059 32 autocmod 2.5b

[ show close-approach data ]
Ephemeris | Orbit Diagram | Orbital Elements | Physical Parameters | Close-Approach Data ]
ABOUT SSD CREDITS/AWARDS PRIVACY/COPYRIGHT GLOSSARY LINKS
FirstGov 2013-Jun-19 03:55 UT
(server date/time)  
NASA Home Page
Site Manager:   Donald K. Yeomans
Webmaster  Alan B. Chamberlin